| time (UTC) | temp C | wind direction | speed KPH | gust KPH | rain 1hr cm | rain 24hr cm | rain mn cm | humidity % | barometer mb |
| 20260510022526 | 13 | 352 | 1.6 | 3.2 | 0.00 | 0.18 | 0.18 | 87 | 1010.3 |
| 20260510022023 | 13 | 352 | 0.0 | 3.2 | 0.00 | 0.18 | 0.18 | 87 | 1010.2 |
| 20260510021522 | 13 | 352 | 1.6 | 3.2 | 0.00 | 0.18 | 0.18 | 86 | 1010.2 |
| 20260510021018 | 13 | 352 | 1.6 | 3.2 | 0.00 | 0.18 | 0.18 | 86 | 1010.1 |
| 20260510020516 | 13 | 352 | 1.6 | 8.0 | 0.00 | 0.18 | 0.18 | 86 | 1010.0 |
| 20260510020034 | 13 | 352 | 3.2 | 8.0 | 0.00 | 0.18 | 0.18 | 86 | 1009.8 |
| 20260510015531 | 13 | 352 | 1.6 | 6.4 | 0.00 | 0.18 | 0.18 | 85 | 1009.6 |
| 20260510015051 | 14 | 352 | 1.6 | 8.0 | 0.00 | 0.18 | 0.18 | 85 | 1009.7 |
| 20260510014528 | 14 | 352 | 1.6 | 8.0 | 0.00 | 0.18 | 0.18 | 84 | 1009.7 |
| 20260510014025 | 14 | 352 | 4.8 | 8.0 | 0.00 | 0.18 | 0.18 | 84 | 1009.7 |
| 20260510013522 | 14 | 352 | 3.2 | 9.7 | 0.00 | 0.18 | 0.18 | 84 | 1009.6 |
| 20260510013019 | 14 | 352 | 4.8 | 9.7 | 0.00 | 0.18 | 0.18 | 83 | 1009.5 |
| 20260510012640 | 15 | 352 | 4.8 | 9.7 | 0.00 | 0.18 | 0.18 | 83 | 1009.4 |
| 20260510012024 | 15 | 352 | 3.2 | 4.8 | 0.00 | 0.18 | 0.18 | 83 | 1009.2 |
| 20260510011522 | 14 | 352 | 0.0 | 6.4 | 0.00 | 0.18 | 0.18 | 82 | 1009.1 |
| 20260510011020 | 14 | 352 | 1.6 | 6.4 | 0.00 | 0.18 | 0.18 | 83 | 1009.1 |
| 20260510010517 | 14 | 352 | 0.0 | 3.2 | 0.00 | 0.18 | 0.18 | 82 | 1009.0 |
| 20260510010036 | 15 | 352 | 0.0 | 1.6 | 0.00 | 0.18 | 0.18 | 82 | 1009.0 |
| 20260510005533 | 15 | 352 | 0.0 | 8.0 | 0.00 | 0.18 | 0.18 | 80 | 1008.8 |
| 20260510005052 | 15 | 352 | 1.6 | 8.0 | 0.00 | 0.18 | 0.18 | 80 | 1008.8 |
| 20260510004529 | 15 | 352 | 1.6 | 8.0 | 0.00 | 0.18 | 0.18 | 79 | 1008.7 |
| 20260510004026 | 15 | 352 | 4.8 | 8.0 | 0.00 | 0.18 | 0.18 | 79 | 1008.7 |
| 20260510003522 | 15 | 352 | 0.0 | 0.0 | 0.00 | 0.18 | 0.18 | 79 | 1008.6 |
| 20260510003020 | 15 | 352 | 0.0 | 0.0 | 0.00 | 0.18 | 0.18 | 78 | 1008.6 |
| 20260510002517 | 16 | 352 | 0.0 | 3.2 | 0.00 | 0.18 | 0.18 | 77 | 1008.5 |
| 20260510002035 | 16 | 352 | 0.0 | 3.2 | 0.00 | 0.18 | 0.18 | 76 | 1008.4 |
| 20260510001555 | 16 | 352 | 0.0 | 3.2 | 0.00 | 0.18 | 0.18 | 75 | 1008.4 |
| 20260510001053 | 16 | 352 | 1.6 | 3.2 | 0.00 | 0.18 | 0.18 | 75 | 1008.5 |
| 20260510000530 | 16 | 352 | 1.6 | 3.2 | 0.00 | 0.18 | 0.18 | 74 | 1008.5 |
| 20260510000028 | 17 | 352 | 0.0 | 3.2 | 0.00 | 0.18 | 0.18 | 73 | 1008.6 |
| 20260509235526 | 17 | 352 | 0.0 | 3.2 | 0.00 | 0.18 | 0.18 | 73 | 1008.5 |
| 20260509235022 | 17 | 352 | 1.6 | 3.2 | 0.00 | 0.18 | 0.18 | 71 | 1008.4 |
| 20260509234520 | 17 | 352 | 1.6 | 4.8 | 0.00 | 0.18 | 0.18 | 71 | 1008.4 |
| 20260509234017 | 17 | 352 | 1.6 | 11.3 | 0.00 | 0.18 | 0.18 | 71 | 1008.4 |
| 20260509233531 | 18 | 352 | 3.2 | 11.3 | 0.00 | 0.18 | 0.18 | 70 | 1008.4 |
| 20260509233049 | 18 | 353 | 4.8 | 9.7 | 0.00 | 0.18 | 0.18 | 70 | 1008.3 |
| 20260509232526 | 18 | 353 | 4.8 | 9.7 | 0.00 | 0.18 | 0.18 | 69 | 1008.4 |
| 20260509232023 | 18 | 353 | 3.2 | 8.0 | 0.00 | 0.18 | 0.18 | 69 | 1008.5 |
| 20260509231521 | 18 | 353 | 3.2 | 8.0 | 0.00 | 0.18 | 0.18 | 69 | 1008.5 |
| 20260509231019 | 18 | 353 | 4.8 | 9.7 | 0.00 | 0.18 | 0.18 | 69 | 1008.3 |
| 20260509230538 | 18 | 353 | 6.4 | 9.7 | 0.00 | 0.18 | 0.18 | 69 | 1008.4 |
| 20260509230034 | 18 | 353 | 1.6 | 6.4 | 0.00 | 0.18 | 0.18 | 69 | 1008.4 |
| 20260509225532 | 18 | 353 | 1.6 | 9.7 | 0.00 | 0.18 | 0.18 | 69 | 1008.4 |
| 20260509225031 | 18 | 353 | 4.8 | 11.3 | 0.00 | 0.18 | 0.18 | 70 | 1008.6 |
| 20260509224527 | 18 | 353 | 6.4 | 11.3 | 0.00 | 0.18 | 0.18 | 68 | 1008.7 |
| 20260509224045 | 18 | 353 | 8.0 | 11.3 | 0.00 | 0.18 | 0.18 | 67 | 1008.6 |
| 20260509223521 | 18 | 353 | 6.4 | 14.5 | 0.00 | 0.18 | 0.18 | 67 | 1008.6 |
| 20260509223019 | 18 | 353 | 9.7 | 14.5 | 0.00 | 0.18 | 0.18 | 68 | 1008.6 |
| 20260509222518 | 18 | 5 | 8.0 | 19.3 | 0.00 | 0.18 | 0.18 | 67 | 1008.7 |
| 20260509222036 | 18 | 344 | 11.3 | 20.9 | 0.00 | 0.18 | 0.18 | 69 | 1008.7 |
| 20260509221554 | 19 | 352 | 12.9 | 20.9 | 0.00 | 0.18 | 0.18 | 67 | 1008.6 |
| 20260509221030 | 19 | 300 | 9.7 | 14.5 | 0.00 | 0.18 | 0.18 | 65 | 1008.6 |
| 20260509220549 | 19 | 360 | 4.8 | 14.5 | 0.00 | 0.18 | 0.18 | 62 | 1008.6 |
| 20260509220046 | 19 | 341 | 8.0 | 14.5 | 0.00 | 0.18 | 0.18 | 64 | 1008.5 |
| 20260509215523 | 19 | 305 | 4.8 | 16.1 | 0.00 | 0.18 | 0.18 | 65 | 1008.4 |
| 20260509215021 | 19 | 304 | 9.7 | 16.1 | 0.00 | 0.18 | 0.18 | 66 | 1008.5 |
| 20260509214518 | 19 | 356 | 9.7 | 14.5 | 0.00 | 0.18 | 0.18 | 65 | 1008.4 |
| 20260509214017 | 19 | 348 | 4.8 | 12.9 | 0.00 | 0.18 | 0.18 | 63 | 1008.5 |
| 20260509213534 | 19 | 348 | 9.7 | 14.5 | 0.00 | 0.18 | 0.18 | 63 | 1008.5 |
| 20260509213029 | 19 | 348 | 8.0 | 14.5 | 0.00 | 0.18 | 0.18 | 64 | 1008.3 |
| 20260509212548 | 19 | 5 | 6.4 | 16.1 | 0.00 | 0.18 | 0.18 | 64 | 1008.4 |
| 20260509212024 | 19 | 5 | 8.0 | 16.1 | 0.00 | 0.18 | 0.18 | 64 | 1008.6 |
| 20260509211522 | 19 | 352 | 8.0 | 16.1 | 0.00 | 0.18 | 0.18 | 66 | 1008.6 |
| 20260509211020 | 19 | 337 | 9.7 | 17.7 | 0.00 | 0.18 | 0.18 | 65 | 1008.6 |
| 20260509210538 | 19 | 61 | 11.3 | 19.3 | 0.00 | 0.18 | 0.18 | 66 | 1008.7 |
| 20260509210035 | 19 | 5 | 11.3 | 19.3 | 0.00 | 0.18 | 0.18 | 62 | 1008.7 |
| 20260509205532 | 19 | 65 | 4.8 | 14.5 | 0.00 | 0.18 | 0.18 | 62 | 1008.8 |
| 20260509205030 | 18 | 327 | 9.7 | 14.5 | 0.00 | 0.18 | 0.18 | 64 | 1008.9 |
| 20260509204528 | 19 | 254 | 6.4 | 12.9 | 0.00 | 0.18 | 0.18 | 61 | 1008.9 |
| 20260509204026 | 19 | 188 | 1.6 | 6.4 | 0.00 | 0.18 | 0.18 | 57 | 1009.0 |
| 20260509203523 | 19 | 188 | 3.2 | 8.0 | 0.00 | 0.18 | 0.18 | 55 | 1009.0 |
| 20260509203021 | 19 | 188 | 3.2 | 9.7 | 0.00 | 0.18 | 0.18 | 56 | 1009.0 |
| 20260509202517 | 19 | 188 | 4.8 | 11.3 | 0.00 | 0.18 | 0.18 | 56 | 1008.9 |
| 20260509202031 | 19 | 188 | 4.8 | 11.3 | 0.00 | 0.18 | 0.18 | 58 | 1008.9 |
| 20260509201529 | 18 | 188 | 0.0 | 11.3 | 0.00 | 0.18 | 0.18 | 59 | 1009.0 |
| 20260509201027 | 18 | 188 | 8.0 | 12.9 | 0.00 | 0.18 | 0.18 | 58 | 1009.0 |
| 20260509200524 | 18 | 187 | 4.8 | 12.9 | 0.00 | 0.18 | 0.18 | 58 | 1009.0 |
| 20260509200022 | 18 | 199 | 6.4 | 9.7 | 0.00 | 0.18 | 0.18 | 59 | 1009.0 |
| 20260509195516 | 18 | 199 | 3.2 | 8.0 | 0.00 | 0.18 | 0.18 | 60 | 1009.0 |
| 20260509195034 | 18 | 199 | 1.6 | 11.3 | 0.00 | 0.18 | 0.18 | 60 | 1009.1 |
| 20260509194553 | 18 | 199 | 4.8 | 11.3 | 0.00 | 0.18 | 0.18 | 62 | 1009.0 |
| 20260509194029 | 18 | 315 | 6.4 | 11.3 | 0.00 | 0.18 | 0.18 | 61 | 1009.0 |
| 20260509193527 | 18 | 315 | 4.8 | 9.7 | 0.00 | 0.18 | 0.18 | 62 | 1009.0 |
| 20260509193046 | 18 | 315 | 1.6 | 8.0 | 0.00 | 0.18 | 0.18 | 60 | 1009.0 |
| 20260509192524 | 19 | 315 | 3.2 | 9.7 | 0.00 | 0.18 | 0.18 | 59 | 1009.1 |
| 20260509192021 | 19 | 315 | 4.8 | 9.7 | 0.00 | 0.18 | 0.18 | 62 | 1009.1 |
| 20260509191518 | 19 | 48 | 6.4 | 17.7 | 0.00 | 0.18 | 0.18 | 59 | 1008.9 |
| 20260509191016 | 19 | 75 | 9.7 | 17.7 | 0.00 | 0.18 | 0.18 | 61 | 1009.0 |
| 20260509190553 | 18 | 284 | 1.6 | 9.7 | 0.00 | 0.18 | 0.18 | 62 | 1009.0 |
| 20260509190030 | 18 | 284 | 1.6 | 11.3 | 0.00 | 0.18 | 0.18 | 63 | 1009.1 |
| 20260509185528 | 18 | 284 | 8.0 | 11.3 | 0.00 | 0.18 | 0.18 | 64 | 1009.1 |
| 20260509185046 | 18 | 46 | 3.2 | 11.3 | 0.00 | 0.18 | 0.18 | 62 | 1009.2 |
| 20260509184523 | 19 | 47 | 4.8 | 11.3 | 0.00 | 0.18 | 0.18 | 64 | 1009.2 |
| 20260509184020 | 18 | 48 | 1.6 | 11.3 | 0.00 | 0.18 | 0.18 | 66 | 1009.5 |
| 20260509183518 | 18 | 48 | 6.4 | 11.3 | 0.00 | 0.18 | 0.18 | 66 | 1009.3 |
| 20260509183016 | 17 | 48 | 4.8 | 12.9 | 0.00 | 0.18 | 0.18 | 67 | 1009.5 |
| 20260509182533 | 17 | 50 | 8.0 | 12.9 | 0.00 | 0.18 | 0.18 | 66 | 1009.7 |
| 20260509182031 | 18 | 50 | 8.0 | 11.3 | 0.00 | 0.18 | 0.18 | 67 | 1009.7 |
| 20260509181550 | 17 | 88 | 6.4 | 9.7 | 0.00 | 0.18 | 0.18 | 68 | 1009.7 |
| 20260509181026 | 17 | 88 | 6.4 | 16.1 | 0.00 | 0.18 | 0.18 | 69 | 1009.8 |
| 20260509180523 | 17 | 88 | 9.7 | 17.7 | 0.00 | 0.18 | 0.18 | 69 | 1009.9 |
| 20260509180020 | 16 | 59 | 6.4 | 14.5 | 0.00 | 0.18 | 0.18 | 70 | 1010.0 |
| 20260509175518 | 16 | 171 | 6.4 | 11.3 | 0.00 | 0.18 | 0.18 | 72 | 1010.3 |
| 20260509175035 | 16 | 171 | 3.2 | 11.3 | 0.00 | 0.18 | 0.18 | 71 | 1010.6 |
| 20260509174533 | 16 | 170 | 3.2 | 9.7 | 0.00 | 0.18 | 0.18 | 72 | 1010.6 |
| 20260509174031 | 16 | 179 | 6.4 | 9.7 | 0.00 | 0.18 | 0.18 | 74 | 1010.7 |
| 20260509173528 | 16 | 179 | 1.6 | 12.9 | 0.00 | 0.18 | 0.18 | 73 | 1010.7 |
| 20260509173026 | 16 | 179 | 8.0 | 12.9 | 0.00 | 0.18 | 0.18 | 74 | 1010.7 |
| 20260509172522 | 15 | 34 | 3.2 | 11.3 | 0.00 | 0.18 | 0.18 | 72 | 1010.9 |
| 20260509172020 | 15 | 34 | 4.8 | 11.3 | 0.00 | 0.18 | 0.18 | 76 | 1010.9 |
| 20260509171518 | 15 | 34 | 3.2 | 8.0 | 0.00 | 0.18 | 0.18 | 74 | 1011.0 |
| 20260509171015 | 15 | 34 | 1.6 | 8.0 | 0.00 | 0.18 | 0.18 | 77 | 1011.1 |
| 20260509170534 | 15 | 34 | 3.2 | 9.7 | 0.00 | 0.18 | 0.18 | 78 | 1011.0 |
| 20260509170031 | 15 | 34 | 6.4 | 11.3 | 0.00 | 0.18 | 0.18 | 77 | 1011.1 |
| 20260509165545 | 15 | 34 | 6.4 | 11.3 | 0.00 | 0.18 | 0.18 | 78 | 1011.1 |
| 20260509165020 | 14 | 41 | 4.8 | 11.3 | 0.00 | 0.18 | 0.18 | 77 | 1011.0 |
| 20260509164518 | 15 | 150 | 3.2 | 9.7 | 0.00 | 0.18 | 0.18 | 77 | 1011.0 |
| 20260509164016 | 15 | 150 | 3.2 | 9.7 | 0.00 | 0.18 | 0.18 | 77 | 1011.0 |
| 20260509163533 | 14 | 150 | 0.0 | 6.4 | 0.00 | 0.18 | 0.18 | 76 | 1010.9 |
| 20260509163030 | 14 | 150 | 0.0 | 9.7 | 0.00 | 0.18 | 0.18 | 77 | 1011.0 |
| 20260509162528 | 14 | 150 | 1.6 | 9.7 | 0.00 | 0.18 | 0.18 | 79 | 1011.0 |
| 20260509162024 | 14 | 150 | 3.2 | 8.0 | 0.00 | 0.18 | 0.18 | 79 | 1011.1 |
| 20260509161543 | 14 | 150 | 4.8 | 9.7 | 0.00 | 0.18 | 0.18 | 79 | 1011.3 |
| 20260509161041 | 14 | 150 | 4.8 | 9.7 | 0.00 | 0.18 | 0.18 | 79 | 1011.2 |
| 20260509160539 | 14 | 150 | 0.0 | 11.3 | 0.00 | 0.18 | 0.18 | 80 | 1011.2 |
| 20260509160016 | 14 | 150 | 1.6 | 11.3 | 0.00 | 0.18 | 0.18 | 81 | 1011.1 |
| 20260509155534 | 14 | 152 | 4.8 | 9.7 | 0.00 | 0.18 | 0.18 | 80 | 1011.2 |
| 20260509155031 | 14 | 162 | 4.8 | 9.7 | 0.00 | 0.18 | 0.18 | 80 | 1011.2 |
| 20260509154530 | 14 | 92 | 3.2 | 9.7 | 0.00 | 0.18 | 0.18 | 79 | 1011.1 |
| 20260509154027 | 14 | 92 | 3.2 | 11.3 | 0.00 | 0.18 | 0.18 | 82 | 1011.1 |
| 20260509153525 | 14 | 92 | 4.8 | 11.3 | 0.00 | 0.18 | 0.18 | 80 | 1011.2 |
| 20260509153044 | 13 | 92 | 4.8 | 12.9 | 0.00 | 0.18 | 0.18 | 81 | 1011.2 |
| 20260509152541 | 13 | 92 | 6.4 | 11.3 | 0.00 | 0.18 | 0.18 | 81 | 1011.1 |
| 20260509152018 | 13 | 92 | 6.4 | 17.7 | 0.00 | 0.18 | 0.18 | 83 | 1011.2 |
| 20260509151516 | 13 | 93 | 6.4 | 17.7 | 0.00 | 0.18 | 0.18 | 83 | 1011.2 |
| 20260509151033 | 13 | 54 | 6.4 | 11.3 | 0.00 | 0.18 | 0.18 | 87 | 1011.2 |
| 20260509150532 | 13 | 54 | 3.2 | 11.3 | 0.03 | 0.18 | 0.18 | 87 | 1011.2 |
| 20260509150027 | 13 | 54 | 9.7 | 11.3 | 0.03 | 0.18 | 0.18 | 88 | 1011.2 |
| 20260509145524 | 13 | 54 | 4.8 | 9.7 | 0.03 | 0.20 | 0.18 | 89 | 1011.2 |
| 20260509145021 | 12 | 54 | 4.8 | 11.3 | 0.03 | 0.20 | 0.18 | 90 | 1011.4 |
| 20260509144518 | 12 | 54 | 6.4 | 11.3 | 0.03 | 0.20 | 0.18 | 90 | 1011.2 |
| 20260509144016 | 12 | 55 | 8.0 | 11.3 | 0.03 | 0.20 | 0.18 | 89 | 1011.3 |
| 20260509143532 | 12 | 55 | 4.8 | 9.7 | 0.05 | 0.20 | 0.18 | 89 | 1011.2 |
| 20260509143051 | 12 | 55 | 3.2 | 8.0 | 0.08 | 0.20 | 0.18 | 90 | 1011.3 |
| 20260509142527 | 12 | 55 | 3.2 | 8.0 | 0.08 | 0.20 | 0.18 | 90 | 1011.3 |
| 20260509142044 | 12 | 55 | 3.2 | 8.0 | 0.10 | 0.20 | 0.18 | 90 | 1011.2 |
| 20260509141521 | 12 | 55 | 1.6 | 4.8 | 0.10 | 0.20 | 0.18 | 91 | 1011.2 |
| 20260509141018 | 11 | 55 | 1.6 | 8.0 | 0.10 | 0.20 | 0.18 | 90 | 1011.3 |
| 20260509140531 | 11 | 55 | 3.2 | 8.0 | 0.10 | 0.18 | 0.15 | 90 | 1011.2 |
| 20260509140029 | 11 | 55 | 1.6 | 6.4 | 0.10 | 0.18 | 0.15 | 91 | 1011.1 |
| 20260509135527 | 11 | 55 | 3.2 | 6.4 | 0.10 | 0.18 | 0.15 | 91 | 1011.1 |
| 20260509135025 | 11 | 55 | 0.0 | 6.4 | 0.13 | 0.18 | 0.15 | 91 | 1011.2 |
| 20260509134544 | 11 | 55 | 3.2 | 9.7 | 0.13 | 0.18 | 0.15 | 90 | 1011.3 |
| 20260509134042 | 11 | 55 | 1.6 | 11.3 | 0.10 | 0.15 | 0.13 | 90 | 1011.3 |
| 20260509133518 | 11 | 55 | 4.8 | 14.5 | 0.13 | 0.15 | 0.13 | 89 | 1011.3 |
| 20260509133034 | 11 | 55 | 8.0 | 14.5 | 0.10 | 0.13 | 0.10 | 89 | 1011.1 |
| 20260509132532 | 11 | 69 | 3.2 | 9.7 | 0.10 | 0.13 | 0.10 | 89 | 1011.1 |
| 20260509132029 | 11 | 69 | 6.4 | 11.3 | 0.08 | 0.10 | 0.08 | 89 | 1011.1 |
| 20260509131527 | 11 | 69 | 6.4 | 11.3 | 0.08 | 0.10 | 0.08 | 89 | 1011.2 |
| 20260509131025 | 11 | 69 | 8.0 | 11.3 | 0.08 | 0.10 | 0.08 | 88 | 1011.1 |
| 20260509130522 | 11 | 69 | 6.4 | 9.7 | 0.05 | 0.08 | 0.05 | 88 | 1011.3 |
| 20260509130020 | 11 | 69 | 4.8 | 9.7 | 0.05 | 0.08 | 0.05 | 87 | 1011.3 |
| 20260509125518 | 11 | 75 | 6.4 | 11.3 | 0.05 | 0.08 | 0.05 | 87 | 1011.3 |
| 20260509125034 | 12 | 75 | 4.8 | 11.3 | 0.03 | 0.05 | 0.03 | 87 | 1011.3 |
| 20260509124553 | 11 | 75 | 8.0 | 11.3 | 0.03 | 0.05 | 0.03 | 86 | 1011.2 |
| 20260509124030 | 12 | 75 | 6.4 | 11.3 | 0.03 | 0.05 | 0.03 | 85 | 1011.2 |
| 20260509123549 | 12 | 75 | 8.0 | 11.3 | 0.00 | 0.03 | 0.00 | 84 | 1011.2 |
| 20260509123026 | 12 | 77 | 8.0 | 11.3 | 0.00 | 0.03 | 0.00 | 83 | 1011.2 |
| 20260509122524 | 12 | 227 | 4.8 | 9.7 | 0.00 | 0.03 | 0.00 | 82 | 1011.3 |
| 20260509122042 | 12 | 250 | 4.8 | 11.3 | 0.00 | 0.03 | 0.00 | 81 | 1011.2 |
| 20260509121520 | 12 | 250 | 6.4 | 11.3 | 0.00 | 0.03 | 0.00 | 80 | 1011.2 |
| 20260509121017 | 12 | 250 | 4.8 | 11.3 | 0.00 | 0.03 | 0.00 | 80 | 1011.2 |
| 20260509120535 | 12 | 250 | 6.4 | 11.3 | 0.00 | 0.03 | 0.00 | 80 | 1011.3 |
| 20260509120033 | 12 | 250 | 4.8 | 11.3 | 0.00 | 0.03 | 0.00 | 78 | 1011.2 |
| 20260509115530 | 12 | 249 | 8.0 | 11.3 | 0.00 | 0.03 | 0.00 | 78 | 1011.4 |
| 20260509115048 | 12 | 247 | 3.2 | 9.7 | 0.00 | 0.03 | 0.00 | 76 | 1011.4 |
| 20260509114546 | 12 | 247 | 6.4 | 9.7 | 0.00 | 0.03 | 0.00 | 77 | 1011.4 |
| 20260509114023 | 12 | 247 | 3.2 | 8.0 | 0.00 | 0.03 | 0.00 | 76 | 1011.4 |
| 20260509113521 | 12 | 247 | 3.2 | 8.0 | 0.00 | 0.03 | 0.00 | 76 | 1011.4 |
| 20260509113018 | 12 | 247 | 1.6 | 8.0 | 0.00 | 0.03 | 0.00 | 76 | 1011.3 |
| 20260509112516 | 12 | 247 | 1.6 | 8.0 | 0.00 | 0.03 | 0.00 | 77 | 1011.2 |
| 20260509112035 | 12 | 247 | 4.8 | 8.0 | 0.00 | 0.03 | 0.00 | 78 | 1011.2 |
| 20260509111532 | 12 | 247 | 3.2 | 8.0 | 0.00 | 0.03 | 0.00 | 77 | 1011.2 |
| 20260509111049 | 12 | 247 | 0.0 | 6.4 | 0.00 | 0.03 | 0.00 | 76 | 1011.1 |
| 20260509110525 | 12 | 247 | 1.6 | 6.4 | 0.00 | 0.03 | 0.00 | 75 | 1011.0 |
| 20260509110022 | 12 | 247 | 1.6 | 3.2 | 0.00 | 0.03 | 0.00 | 74 | 1011.1 |
| 20260509105519 | 12 | 247 | 0.0 | 6.4 | 0.00 | 0.03 | 0.00 | 73 | 1011.0 |
| 20260509105016 | 12 | 247 | 1.6 | 9.7 | 0.00 | 0.03 | 0.00 | 73 | 1011.0 |
| 20260509104530 | 12 | 247 | 3.2 | 11.3 | 0.00 | 0.03 | 0.00 | 73 | 1011.0 |
| 20260509104026 | 12 | 247 | 4.8 | 11.3 | 0.00 | 0.03 | 0.00 | 72 | 1010.8 |
| 20260509103545 | 12 | 247 | 8.0 | 12.9 | 0.00 | 0.03 | 0.00 | 72 | 1010.7 |
| 20260509103021 | 12 | 247 | 6.4 | 12.9 | 0.00 | 0.03 | 0.00 | 73 | 1010.8 |
| 20260509102518 | 12 | 221 | 4.8 | 11.3 | 0.00 | 0.03 | 0.00 | 74 | 1010.8 |
| 20260509102035 | 12 | 221 | 4.8 | 11.3 | 0.00 | 0.03 | 0.00 | 75 | 1010.8 |
| 20260509101554 | 12 | 219 | 4.8 | 8.0 | 0.00 | 0.03 | 0.00 | 75 | 1010.6 |
| 20260509101052 | 12 | 219 | 3.2 | 8.0 | 0.00 | 0.03 | 0.00 | 75 | 1010.5 |
| 20260509100520 | 12 | 219 | 4.8 | 8.0 | 0.00 | 0.03 | 0.00 | 74 | 1010.4 |
| 20260509100018 | 12 | 219 | 1.6 | 6.4 | 0.00 | 0.03 | 0.00 | 73 | 1010.3 |
| 20260509095516 | 12 | 219 | 1.6 | 6.4 | 0.00 | 0.03 | 0.00 | 72 | 1010.3 |
| 20260509095034 | 12 | 219 | 0.0 | 3.2 | 0.00 | 0.03 | 0.00 | 72 | 1010.2 |
| 20260509094532 | 12 | 219 | 1.6 | 3.2 | 0.00 | 0.03 | 0.00 | 72 | 1010.3 |
| 20260509094030 | 12 | 219 | 0.0 | 6.4 | 0.00 | 0.03 | 0.00 | 71 | 1010.3 |
| 20260509093528 | 12 | 219 | 1.6 | 8.0 | 0.00 | 0.03 | 0.00 | 71 | 1010.3 |
| 20260509093047 | 12 | 192 | 1.6 | 6.4 | 0.00 | 0.03 | 0.00 | 71 | 1010.2 |
| 20260509092523 | 12 | 192 | 3.2 | 6.4 | 0.00 | 0.03 | 0.00 | 71 | 1010.4 |
| 20260509092021 | 12 | 192 | 3.2 | 4.8 | 0.00 | 0.03 | 0.00 | 71 | 1010.2 |
| 20260509091518 | 12 | 192 | 0.0 | 3.2 | 0.00 | 0.03 | 0.00 | 71 | 1010.2 |
| 20260509091035 | 12 | 192 | 1.6 | 8.0 | 0.00 | 0.03 | 0.00 | 71 | 1010.2 |
| 20260509090533 | 12 | 192 | 3.2 | 8.0 | 0.00 | 0.03 | 0.00 | 71 | 1010.2 |
| 20260509090031 | 12 | 192 | 3.2 | 8.0 | 0.00 | 0.03 | 0.00 | 71 | 1010.4 |
| 20260509085529 | 12 | 192 | 1.6 | 4.8 | 0.00 | 0.03 | 0.00 | 72 | 1010.3 |
| 20260509085026 | 12 | 192 | 1.6 | 6.4 | 0.00 | 0.03 | 0.00 | 72 | 1010.4 |
| 20260509084524 | 12 | 192 | 1.6 | 3.2 | 0.00 | 0.03 | 0.00 | 72 | 1010.4 |
| 20260509084043 | 12 | 192 | 1.6 | 8.0 | 0.00 | 0.03 | 0.00 | 71 | 1010.4 |
| 20260509083520 | 12 | 192 | 1.6 | 8.0 | 0.00 | 0.03 | 0.00 | 72 | 1010.5 |
| 20260509083018 | 12 | 192 | 3.2 | 8.0 | 0.00 | 0.03 | 0.00 | 73 | 1010.4 |
| 20260509082516 | 12 | 192 | 1.6 | 3.2 | 0.00 | 0.03 | 0.00 | 72 | 1010.5 |
| 20260509082033 | 12 | 192 | 0.0 | 1.6 | 0.00 | 0.03 | 0.00 | 72 | 1010.5 |
| 20260509081551 | 12 | 192 | 0.0 | 1.6 | 0.00 | 0.03 | 0.00 | 72 | 1010.4 |
| 20260509081029 | 12 | 192 | 0.0 | 3.2 | 0.00 | 0.03 | 0.00 | 72 | 1010.5 |
| 20260509080527 | 12 | 192 | 0.0 | 4.8 | 0.00 | 0.03 | 0.00 | 72 | 1010.6 |
| 20260509080042 | 12 | 192 | 1.6 | 6.4 | 0.00 | 0.03 | 0.00 | 72 | 1010.6 |
| 20260509075534 | 12 | 192 | 3.2 | 3.2 | 0.00 | 0.03 | 0.00 | 72 | 1010.6 |
| 20260509075020 | 12 | 192 | 0.0 | 0.0 | 0.00 | 0.03 | 0.00 | 72 | 1010.6 |
| 20260509074518 | 12 | 192 | 0.0 | 0.0 | 0.00 | 0.03 | 0.00 | 71 | 1010.5 |
| 20260509074037 | 12 | 192 | 0.0 | 3.2 | 0.00 | 0.03 | 0.00 | 70 | 1010.6 |
| 20260509073555 | 12 | 192 | 0.0 | 8.0 | 0.00 | 0.03 | 0.00 | 70 | 1010.6 |
| 20260509073056 | 12 | 192 | 0.0 | 8.0 | 0.00 | 0.03 | 0.00 | 69 | 1010.7 |
| 20260509072533 | 12 | 192 | 3.2 | 8.0 | 0.00 | 0.03 | 0.00 | 68 | 1010.6 |
| 20260509072031 | 12 | 192 | 1.6 | 8.0 | 0.00 | 0.03 | 0.00 | 67 | 1010.5 |
| 20260509071528 | 12 | 192 | 3.2 | 8.0 | 0.00 | 0.03 | 0.00 | 67 | 1010.7 |
| 20260509071026 | 12 | 192 | 3.2 | 8.0 | 0.00 | 0.03 | 0.00 | 67 | 1010.7 |
| 20260509070522 | 13 | 192 | 3.2 | 9.7 | 0.00 | 0.03 | 0.00 | 66 | 1010.7 |
| 20260509070020 | 13 | 192 | 3.2 | 9.7 | 0.00 | 0.03 | 0.00 | 66 | 1010.7 |
| 20260509065517 | 13 | 192 | 4.8 | 11.3 | 0.00 | 0.03 | 0.00 | 65 | 1010.6 |
| 20260509065035 | 13 | 192 | 1.6 | 12.9 | 0.00 | 0.03 | 0.00 | 65 | 1010.6 |
| 20260509064532 | 12 | 194 | 6.4 | 12.9 | 0.00 | 0.03 | 0.00 | 67 | 1010.5 |
| 20260509064028 | 12 | 193 | 8.0 | 11.3 | 0.00 | 0.03 | 0.00 | 67 | 1010.6 |
| 20260509063548 | 12 | 193 | 8.0 | 11.3 | 0.00 | 0.03 | 0.00 | 68 | 1010.6 |
| 20260509063024 | 12 | 193 | 4.8 | 11.3 | 0.00 | 0.03 | 0.00 | 70 | 1010.7 |
| 20260509062538 | 12 | 193 | 8.0 | 9.7 | 0.00 | 0.03 | 0.00 | 69 | 1010.7 |
| 20260509062035 | 12 | 193 | 3.2 | 4.8 | 0.00 | 0.03 | 0.00 | 68 | 1010.7 |
| 20260509061529 | 12 | 193 | 0.0 | 3.2 | 0.00 | 0.03 | 0.00 | 67 | 1010.8 |
| 20260509061027 | 12 | 193 | 1.6 | 3.2 | 0.00 | 0.03 | 0.00 | 66 | 1010.8 |
| 20260509060524 | 13 | 193 | 0.0 | 1.6 | 0.00 | 0.03 | 0.00 | 65 | 1010.9 |
| 20260509060023 | 13 | 193 | 0.0 | 3.2 | 0.00 | 0.03 | 0.00 | 65 | 1010.9 |
| 20260509055520 | 13 | 193 | 1.6 | 3.2 | 0.00 | 0.03 | 0.00 | 65 | 1011.1 |
| 20260509055037 | 13 | 193 | 1.6 | 8.0 | 0.00 | 0.03 | 0.00 | 65 | 1011.0 |
| 20260509054555 | 13 | 193 | 1.6 | 8.0 | 0.00 | 0.03 | 0.00 | 65 | 1011.1 |
| 20260509054053 | 13 | 194 | 1.6 | 8.0 | 0.00 | 0.03 | 0.00 | 66 | 1011.0 |
| 20260509053529 | 13 | 194 | 3.2 | 11.3 | 0.00 | 0.03 | 0.00 | 67 | 1011.0 |
| 20260509053028 | 13 | 194 | 3.2 | 11.3 | 0.00 | 0.03 | 0.00 | 67 | 1011.0 |
| 20260509052546 | 13 | 194 | 3.2 | 8.0 | 0.00 | 0.03 | 0.00 | 66 | 1011.0 |
| 20260509052022 | 13 | 194 | 1.6 | 8.0 | 0.00 | 0.03 | 0.00 | 66 | 1010.9 |
| 20260509051520 | 13 | 194 | 1.6 | 8.0 | 0.00 | 0.03 | 0.00 | 69 | 1010.9 |
| 20260509051017 | 13 | 194 | 3.2 | 11.3 | 0.00 | 0.03 | 0.00 | 70 | 1011.0 |
| 20260509050515 | 13 | 194 | 8.0 | 11.3 | 0.00 | 0.03 | 0.00 | 71 | 1011.1 |
| 20260509050058 | 12 | 162 | 4.8 | 9.7 | 0.00 | 0.03 | 0.00 | 70 | 1011.0 |
| 20260509045530 | 12 | 160 | 0.0 | 6.4 | 0.00 | 0.03 | 0.00 | 72 | 1010.9 |
| 20260509045027 | 12 | 160 | 1.6 | 3.2 | 0.00 | 0.03 | 0.00 | 72 | 1010.8 |
| 20260509044524 | 12 | 160 | 0.0 | 6.4 | 0.00 | 0.03 | 0.00 | 72 | 1010.8 |
| 20260509044021 | 12 | 160 | 0.0 | 9.7 | 0.00 | 0.03 | 0.00 | 72 | 1010.9 |
| 20260509043518 | 12 | 160 | 6.4 | 9.7 | 0.00 | 0.03 | 0.00 | 72 | 1011.0 |
| 20260509043016 | 13 | 169 | 6.4 | 8.0 | 0.00 | 0.03 | 0.00 | 70 | 1011.1 |
| 20260509042534 | 13 | 169 | 3.2 | 8.0 | 0.00 | 0.03 | 0.00 | 69 | 1011.1 |
| 20260509042030 | 13 | 169 | 0.0 | 8.0 | 0.00 | 0.03 | 0.00 | 67 | 1011.3 |
| 20260509041527 | 13 | 169 | 1.6 | 8.0 | 0.00 | 0.03 | 0.00 | 67 | 1011.3 |
| 20260509041024 | 13 | 169 | 3.2 | 8.0 | 0.00 | 0.03 | 0.00 | 67 | 1011.4 |
| 20260509040522 | 13 | 169 | 3.2 | 8.0 | 0.00 | 0.03 | 0.00 | 68 | 1011.4 |
| 20260509040020 | 13 | 168 | 3.2 | 8.0 | 0.00 | 0.03 | 0.00 | 68 | 1011.3 |
| 20260509035538 | 13 | 167 | 3.2 | 3.2 | 0.00 | 0.03 | 0.00 | 68 | 1011.4 |
| 20260509035035 | 12 | 167 | 1.6 | 8.0 | 0.00 | 0.03 | 0.00 | 68 | 1011.4 |
| 20260509034557 | 12 | 167 | 3.2 | 8.0 | 0.00 | 0.03 | 0.00 | 70 | 1011.4 |
| 20260509034050 | 12 | 167 | 1.6 | 3.2 | 0.00 | 0.03 | 0.00 | 69 | 1011.4 |
| 20260509033527 | 12 | 167 | 0.0 | 3.2 | 0.00 | 0.03 | 0.00 | 68 | 1011.3 |
| 20260509033025 | 13 | 167 | 1.6 | 8.0 | 0.00 | 0.03 | 0.00 | 67 | 1011.3 |
| 20260509032522 | 13 | 167 | 3.2 | 8.0 | 0.00 | 0.03 | 0.00 | 67 | 1011.3 |
| 20260509032019 | 13 | 167 | 3.2 | 8.0 | 0.00 | 0.03 | 0.00 | 66 | 1011.3 |
| 20260509031518 | 13 | 167 | 3.2 | 8.0 | 0.00 | 0.03 | 0.00 | 66 | 1011.4 |
| 20260509031057 | 13 | 167 | 3.2 | 9.7 | 0.00 | 0.03 | 0.00 | 66 | 1011.6 |
| 20260509030532 | 13 | 167 | 6.4 | 9.7 | 0.00 | 0.03 | 0.00 | 64 | 1011.5 |
| 20260509030031 | 13 | 167 | 1.6 | 6.4 | 0.00 | 0.03 | 0.00 | 63 | 1011.4 |
| 20260509025529 | 14 | 167 | 1.6 | 6.4 | 0.00 | 0.03 | 0.00 | 63 | 1011.5 |
| 20260509025027 | 14 | 167 | 1.6 | 8.0 | 0.00 | 0.03 | 0.00 | 63 | 1011.6 |
| 20260509024545 | 14 | 167 | 1.6 | 8.0 | 0.00 | 0.03 | 0.00 | 62 | 1011.6 |
| 20260509024021 | 14 | 167 | 4.8 | 8.0 | 0.00 | 0.03 | 0.00 | 61 | 1011.7 |
| 20260509023519 | 14 | 168 | 3.2 | 8.0 | 0.00 | 0.03 | 0.00 | 61 | 1011.6 |
| 20260509023038 | 14 | 168 | 3.2 | 8.0 | 0.00 | 0.03 | 0.00 | 61 | 1011.8 |